Showing default

ICEYE-X37, 59102

Orbit data source: Space-Track

ICEYE-X37, 59102 is a payload satellite owned by ICEYE US (US) in SSO that was launched on Mon, 04 Mar 2024 UTC via an FALCON 9 launch vehicle from the Air Force Western Test Range (AFWTR). Payload-class satellites include a variety of spacecraft equipped with specific instruments for various scientific and technological missions. These include communications satellites like Starlink; space stations such as the ISS; scientific satellites like the Hubble; Earth observation satellites from companies like Planet Labs, Umbra, and HawkEye 360; GPS; miniature CubeSats for education and research; and military/defense satellites.

Loading next visibility...
Identifier
59102, 2024-043E
Orbit
SSO
Country
Flag of USUS
Related business
Manufacturer
ICEYE US
Mission
Operational Commercial Radar Imaging
Bus & Motor
ICEYE, Unknown motor
Mass
90 kg wet, 89 kg dry
Launch date (UTC)
2024-03-04 (2 years ago)
Launch vehicle
FALCON 9
Launch site
Air Force Western Test Range (AFWTR)
Object type
Payload
Rocket body
Debris
Shape & HBR
Box + 1 Pan, 1.6 m
Radar Cross Section
0.825 m², Medium (>0.1 m² and < 1m²)

Expand to show TLE details & history
Last TLE update: 5 hours ago

TLE from 5 hours ago
0 ICEYE-X37
1 59102U 24043E   26036.84808917  .00010878  00000-0  77243-3 0  9992
2 59102  97.8108 172.0701 0016304  94.8720 265.4368 15.04795145105320
Epoch: 2026-02-05T20:21Z
TLE epoch observation values (Epoch: 2026-02-05T20:21:14.904Z)
Latitude
0.00002°
Longitude
90.76356°
Altitude
556.11 km
Speed
7.583 km/s
True Right ascension
11h 28m 16s
True Declination
0° 00' 00"
Sunlit
Object was in full shadow at epoch
Visualization orbit readout
Latitude
Unknown
Longitude
Unknown
Altitude
Unknown
Speed
Unknown
Apparent Right ascension
Unknown
Apparent Declination
Unknown
Sunlit
N/A
Visualization observer readout
Local Sidereal Time
03:12:56
Azimuth
Unknown
Elevation
Unknown
Doppler factor
Unknown
Orbital elements
Apogee altitude
560.433 km
Perigee altitude
537.844 km
Semi-major axis
6,927.275 km
Eccentricity
0.00163
Inclination
97.8108°
RAAN
172.0701°
Arg. of periapsis
94.872°
True anomaly
265.25059°
Mean anomaly
265.4368°
Eccentric anomaly
265.34369°
Mean motion
3.76443 °/min
Orbital period
95.63 mins
BSTAR
0.00077243
Loading maneuver chart data...
Computing Atmospheric mass density...
Loading historical data...
Loading historical data...
Loading historical data...
Loading historical data...
Loading historical data...
Loading historical data...
Loading historical data...

Documentation

Showing up to 5 results
|